Terminal Aerodrome Forecast
Issued by NWS

Home | Current Version | Previous Version | Text Only | Print | Product List | Glossary On
Versions: 1 2 3 4 5 6 7 8 9 10 11 12
000
FTUS46 KSTO 260500
TAFSCK
TAF
KSCK 260526Z 2606/2706 28006KT P6SM SKC
     FM260800 VRB04KT P6SM SKC
     FM261800 31008KT P6SM SKC=

USA.gov is the U.S. government's official web portal to all federal, state and local government web resources and services.